Dewpoint
49 40 28 25 19 12 4 6 12 15 18 20 22 26 22 23 22 23 34 46 45 49 60 67 69 69 70 71 71 71 72 71 71 71 71 71 71 72 71 71 70 69 69 69 69 68 68 69 69
42 28 24 23 13 3 3 5 14 12 20 23 22 27 20 18 22 27 39 53 48 49 58 63 69 69 70 71 71 72 72 72 71 71 71 71 71 71 71 71 69 67 68 68 68 68 67 69 69
46 24 21 16 9 3 -2 8 12 18 21 23 22 22 20 19 24 29 39 52 49 50 55 64 68 68 70 70 70 71 72 71 71 71 70 70 70 70 70 68 67 66 66 68 68 68 68 68 68
30 20 19 13 7 3 3 7 16 19 17 20 20 19 20 23 28 31 40 49 48 49 52 67 68 68 70 70 70 70 71 71 71 70 71 71 70 70 68 63 65 66 65 65 65 66 68 68 67
25 19 13 8 5 3 7 11 19 17 16 18 20 19 18 25 33 39 40 47 47 50 56 67 67 68 69 70 70 70 70 71 70 70 71 70 70 69 66 58 56 63 59 64 64 67 68 67 66
17 14 11 7 5 5 7 9 18 18 18 20 19 19 20 35 34 39 43 46 50 53 58 67 67 68 69 70 70 69 69 70 71 71 71 69 69 67 62 64 65 65 65 64 65 67 67 66 65
20 16 13 11 8 5 6 10 11 14 15 20 22 20 20 28 37 46 46 48 54 58 62 65 67 67 69 69 70 68 68 69 70 70 70 69 67 64 65 65 65 65 66 66 67 67 66 65 64
22 21 17 14 12 9 8 9 11 8 9 18 21 18 19 28 37 46 52 52 57 61 65 65 66 67 67 68 69 68 68 68 68 70 69 68 66 64 66 66 65 66 67 66 66 66 65 64 63
24 21 17 15 13 11 11 10 12 12 9 17 19 18 24 26 32 41 49 54 58 62 65 65 67 67 67 67 68 69 68 68 68 69 68 66 65 64 65 64 65 67 66 66 66 65 64 63 62
23 21 19 18 16 14 13 14 13 15 16 14 18 20 21 25 26 31 34 42 54 58 62 65 66 67 67 66 67 67 67 67 67 67 68 67 65 64 62 62 64 66 66 66 66 65 63 62 61
24 22 21 18 18 17 14 13 16 15 14 14 12 14 19 23 27 30 32 34 37 51 57 62 65 67 66 67 67 66 65 65 65 65 65 67 64 64 62 62 62 64 65 64 64 64 63 61 60
20 22 22 20 20 19 18 18 17 16 16 17 17 17 18 23 26 26 29 32 35 39 52 59 63 66 66 65 67 67 65 65 65 64 66 66 65 64 62 63 62 60 62 63 63 64 62 60 57
18 21 21 21 21 21 21 20 20 20 20 20 21 21 23 25 26 26 28 30 36 40 47 55 62 65 65 66 66 67 65 65 64 64 66 66 64 63 63 62 61 59 61 62 62 63 61 58 52
18 18 19 21 20 20 21 21 21 21 23 23 24 25 25 27 28 29 29 31 34 40 45 52 58 63 65 66 66 66 66 64 65 64 65 67 65 64 62 62 62 60 62 64 63 62 60 56 54
18 18 18 18 21 20 22 20 20 20 21 22 24 27 27 28 28 28 31 31 31 33 37 44 52 58 63 65 66 66 66 65 64 65 66 66 66 65 62 62 63 62 64 62 63 61 59 56 56
16 16 15 16 15 15 17 16 18 18 20 21 24 25 26 26 26 23 25 28 28 29 30 31 33 49 58 63 65 66 66 66 65 66 66 66 67 65 64 63 63 63 62 62 62 60 59 56 54
14 11 11 12 13 13 14 14 15 16 20 21 22 22 19 17 19 20 21 22 24 25 27 30 33 40 52 59 62 65 65 66 65 65 65 66 66 66 65 63 62 62 62 62 61 61 58 53 52
6 5 6 6 7 10 14 14 16 17 19 21 16 16 13 12 13 17 19 22 31 35 38 39 39 41 46 55 61 62 65 65 65 65 63 65 66 66 65 64 63 63 62 61 61 59 58 53 53
5 4 4 5 4 6 8 10 13 13 15 16 15 14 11 8 11 15 21 32 37 40 44 43 44 47 45 49 56 60 63 64 63 64 64 65 65 65 64 64 63 62 61 59 60 59 57 53 54
5 6 5 4 1 1 7 9 9 7 10 12 11 8 6 10 16 19 30 36 40 43 45 49 49 49 50 50 55 59 63 61 61 62 63 62 63 64 63 63 62 62 61 59 59 58 56 54 55
-1 3 6 5 3 4 5 6 6 2 1 3 7 6 9 16 19 29 34 37 42 45 51 52 50 51 53 54 57 61 61 60 60 60 60 61 61 62 62 62 62 61 60 59 59 58 57 53 53
9 9 7 7 8 5 7 1 1 1 1 4 6 10 16 23 31 33 33 35 40 45 53 54 53 53 55 57 59 61 59 59 59 59 60 60 60 60 60 61 62 61 60 59 59 59 57 55 52
10 12 11 11 11 9 3 2 2 6 8 8 10 16 24 33 34 32 33 35 38 45 48 54 56 55 57 58 58 59 60 59 60 60 60 60 60 60 61 62 62 60 60 59 59 59 57 55 54
15 15 11 13 14 9 10 6 3 7 10 9 13 25 32 33 33 33 35 37 38 45 49 49 54 55 58 59 60 60 60 59 59 58 59 59 61 61 61 61 61 60 59 59 58 59 57 56 55
11 12 15 11 14 16 10 6 4 7 7 9 19 31 32 33 34 34 35 38 40 44 48 50 49 54 57 59 60 61 61 60 58 58 58 60 59 59 59 59 59 59 59 58 58 58 57 55 54
13 14 13 12 13 11 11 9 8 8 25 28 30 31 33 33 34 34 34 37 39 42 45 51 50 50 55 57 58 60 61 60 58 58 58 59 59 59 59 58 57 57 57 58 58 58 57 56 56
17 20 17 15 15 13 12 13 23 26 27 28 27 28 32 33 33 31 33 36 38 37 41 49 53 51 55 56 57 58 60 60 58 57 59 58 60 59 58 58 56 56 56 57 57 57 57 58 57
31 24 23 24 19 14 9 9 16 22 21 22 19 16 17 20 24 27 32 34 35 38 42 46 50 53 54 55 57 58 59 60 58 58 59 59 59 60 59 58 56 55 55 55 56 56 57 57 57
26 27 19 22 23 13 9 6 14 24 18 12 10 11 11 9 10 21 30 34 36 39 42 45 48 51 55 55 56 57 58 60 59 58 59 59 60 59 60 58 57 55 54 55 55 55 56 56 56
25 26 31 27 17 17 13 13 26 22 16 17 15 12 10 11 8 12 28 32 37 40 43 44 46 48 51 56 56 57 57 60 58 57 57 58 58 59 60 59 58 56 55 54 54 54 55 55 55
Wind_Speed
9 13 14 9 11 11 21 17 6 6 7 3 4 4 5 6 5 5 6 12 9 13 15 15 13 12 11 11 11 15 19 19 19 17 17 17 17 15 15 14 15 17 17 19 18 17 18 17 19
14 8 10 12 12 20 19 14 9 9 7 4 5 8 6 4 4 5 9 12 10 13 14 14 16 14 12 12 13 16 20 19 18 19 17 18 17 16 15 15 16 17 16 18 18 18 18 16 15
15 11 13 11 21 22 18 7 10 10 6 9 10 11 11 6 6 5 12 15 13 12 12 15 18 14 12 11 13 16 20 20 19 18 18 20 19 17 16 15 15 15 15 18 17 16 19 19 17
10 9 11 14 22 18 10 6 6 4 8 13 13 9 7 2 11 4 14 16 14 13 11 24 20 15 12 11 10 11 16 20 21 19 18 20 20 19 16 20 19 10 16 7 13 15 20 18 17
14 12 19 21 23 23 5 8 10 11 7 8 13 17 6 9 6 5 12 15 14 12 12 17 21 17 15 12 11 11 11 16 19 21 21 21 22 21 23 23 34 21 26 13 6 18 20 19 18
14 13 20 22 25 22 6 9 9 13 4 12 9 16 9 12 7 8 10 15 13 13 11 12 16 18 16 15 13 13 13 14 16 19 21 23 21 22 21 21 24 18 18 19 12 17 18 19 17
22 21 23 25 24 22 11 10 15 17 16 12 8 12 16 12 5 2 9 12 14 13 13 12 15 16 15 14 14 14 15 15 17 18 20 20 22 20 19 21 17 18 16 18 22 19 20 18 18
20 23 31 28 25 26 18 10 12 19 20 10 4 10 14 10 5 2 5 10 12 12 13 14 14 16 16 16 14 16 16 16 16 18 14 18 21 20 18 17 17 17 17 19 23 21 22 18 17
19 24 30 28 27 19 16 8 13 15 15 8 14 14 4 6 3 7 9 10 13 13 14 14 15 16 17 16 17 15 16 16 15 15 14 17 18 18 18 19 19 17 21 22 23 22 23 23 17
26 26 32 26 23 19 14 7 13 11 16 17 15 13 11 9 10 10 11 13 14 16 16 16 16 16 16 14 15 18 17 16 17 18 18 18 19 19 19 22 19 17 19 22 21 20 22 19 17
27 36 28 23 22 16 20 16 17 19 20 18 19 19 19 12 13 12 12 12 14 17 17 18 17 17 17 15 14 16 16 17 18 19 20 20 19 19 18 15 18 15 18 16 18 16 16 15 16
32 30 26 27 28 14 24 25 24 24 24 22 22 15 13 15 16 16 14 13 13 14 17 19 19 18 19 16 15 16 17 17 17 20 20 18 16 14 17 14 16 17 18 17 16 13 15 19 21
31 28 28 24 23 25 24 28 28 30 24 20 22 22 18 19 19 17 16 14 12 13 14 16 18 19 19 20 16 17 19 19 19 19 20 19 20 17 17 18 17 17 15 16 15 14 17 20 17
24 26 30 27 31 25 28 31 29 31 25 25 24 26 24 22 21 18 18 17 17 15 13 15 17 20 20 19 19 19 20 20 21 18 18 21 18 18 19 18 15 15 16 14 15 16 16 13 15
26 28 28 27 23 23 21 33 35 29 27 28 27 21 20 20 20 20 17 19 19 17 14 15 17 18 21 21 19 19 21 21 20 19 19 21 20 18 19 18 16 16 16 20 16 22 19 16 17
20 23 31 27 29 29 23 40 28 27 24 27 26 25 17 17 17 16 16 17 16 14 14 15 13 17 21 21 21 17 18 20 20 18 17 21 21 21 20 17 19 16 17 14 13 17 19 18 20
27 32 30 26 24 22 23 36 26 29 16 18 15 16 20 17 17 14 16 15 15 14 14 15 16 15 18 20 20 22 19 18 20 20 21 19 20 21 18 19 18 17 17 18 14 9 12 16 18
25 29 29 30 24 20 23 32 20 18 16 15 19 17 15 15 15 14 9 4 6 10 11 15 17 16 16 16 18 19 21 22 18 20 20 21 20 19 20 17 20 18 19 19 18 19 18 18 19
31 30 30 28 17 18 28 22 24 25 22 21 21 17 18 18 16 15 7 4 7 9 12 16 17 17 17 19 21 22 23 17 18 18 25 19 17 22 20 17 18 18 19 24 26 21 19 20 20
30 29 33 31 26 21 23 28 25 27 22 19 24 21 20 16 10 9 4 5 6 8 11 12 16 16 18 20 20 18 20 12 13 13 18 18 18 20 22 19 19 22 19 24 27 27 21 19 19
30 31 30 31 24 19 24 31 31 32 29 26 22 20 13 8 8 5 5 4 4 6 9 12 12 13 16 18 14 10 13 10 15 19 18 20 18 18 22 22 18 21 22 23 28 29 30 25 23
27 24 28 27 23 28 27 37 30 29 26 25 25 16 11 12 7 3 3 4 5 8 10 11 9 9 11 16 18 19 18 16 13 14 16 17 21 21 22 21 19 18 22 24 28 28 31 24 25
28 19 17 16 22 25 29 26 24 15 18 15 18 15 12 7 4 1 3 6 7 8 10 9 9 6 6 14 11 17 16 19 18 19 20 20 18 21 20 18 17 17 20 24 32 29 32 28 25
25 28 23 19 21 26 36 32 28 23 23 21 17 14 10 8 5 1 3 6 7 8 10 9 7 5 7 12 15 18 21 20 16 14 15 18 15 15 17 17 18 20 21 25 28 31 31 27 27
18 19 20 17 22 36 26 30 25 12 18 25 20 12 7 6 3 1 4 7 9 10 12 12 8 6 8 11 15 16 20 18 14 15 18 17 15 14 15 14 15 17 20 18 24 27 30 31 26
25 23 20 20 21 25 31 24 24 29 7 12 13 10 6 5 2 1 4 6 8 9 11 16 13 4 6 11 13 10 14 14 15 17 13 14 17 15 15 15 15 16 15 16 25 27 27 29 22
15 22 26 31 27 15 14 20 6 10 17 13 13 10 5 4 3 4 4 6 8 12 12 12 15 9 3 10 12 12 12 16 15 14 14 14 16 16 18 17 17 17 16 16 16 20 23 21 24
8 17 14 14 8 26 20 18 13 21 19 16 12 8 4 1 3 5 6 6 10 13 12 11 13 13 9 9 13 12 14 15 12 15 15 16 15 18 19 19 19 19 18 18 16 17 22 20 23
1 16 17 15 15 19 25 22 22 23 20 16 12 4 1 5 7 8 7 7 9 11 13 12 13 14 11 9 11 13 14 20 15 14 16 14 15 16 18 19 20 21 21 21 21 16 23 21 22
7 6 3 11 23 23 27 13 20 26 18 13 9 2 3 7 11 13 9 10 7 10 13 14 13 15 13 13 10 14 16 14 14 13 15 13 13 14 14 19 19 22 23 25 26 23 20 23 22
Wind_Direction
213 220 233 251 242 232 258 249 257 188 196 183 287 179 261 351 13 19 83 91 105 131 134 157 155 151 156 158 160 158 162 165 166 163 167 162 154 152 153 151 157 153 147 143 141 137 130 129 124
227 224 239 267 249 250 247 209 192 217 73 145 210 210 238 212 95 109 130 131 149 138 142 152 158 157 162 166 164 161 163 167 165 165 167 158 155 156 165 162 166 155 155 150 151 148 136 127 118
262 234 261 233 239 256 275 140 219 121 168 199 208 217 218 236 155 139 115 152 159 155 157 142 156 160 164 171 171 162 162 163 163 166 168 161 158 159 165 171 183 159 160 151 148 138 135 129 124
209 210 250 248 256 254 279 347 112 164 194 204 212 207 212 12 143 198 137 162 165 164 161 138 153 162 165 172 176 173 169 164 167 169 162 158 157 161 150 97 26 64 356 171 148 153 129 125 128
236 257 247 243 250 259 186 285 139 226 203 215 221 227 208 156 125 142 156 168 175 166 141 145 156 164 168 175 175 176 173 170 168 166 161 163 161 152 144 144 159 159 131 187 193 139 132 133 137
230 243 245 247 247 245 190 248 216 234 179 231 248 246 229 128 191 160 168 175 179 167 163 146 165 166 170 176 178 176 181 175 173 170 167 169 164 157 154 162 164 173 171 141 183 144 135 139 137
243 242 246 259 263 270 191 217 222 231 229 222 253 235 238 166 109 232 188 183 178 173 170 162 175 176 172 179 183 179 185 181 175 183 179 172 166 166 163 170 165 172 179 162 158 149 139 137 140
245 253 263 259 257 258 268 191 219 235 243 169 219 231 233 99 109 226 197 186 174 186 182 175 177 181 182 185 186 183 186 198 191 191 186 175 172 172 176 171 178 182 176 156 152 155 141 141 144
236 253 250 249 251 251 254 195 215 258 236 193 198 254 293 28 289 205 190 184 184 195 192 189 178 184 186 189 187 187 188 197 195 195 182 175 191 188 179 190 183 178 163 157 157 153 149 145 142
227 237 244 255 267 268 244 218 235 223 231 229 221 232 243 241 236 237 230 205 207 201 201 197 188 187 192 189 181 195 195 202 202 202 193 203 206 195 196 189 175 175 164 155 161 150 141 151 145
225 242 257 258 264 279 273 262 229 227 233 226 232 230 229 219 236 237 242 245 222 212 203 204 197 192 195 187 184 196 197 202 205 205 205 201 211 202 203 190 181 183 173 169 157 152 159 173 165
243 243 259 262 269 247 257 268 259 251 253 266 270 264 257 249 240 241 239 245 246 230 203 203 204 196 198 191 193 193 201 200 200 206 209 198 213 210 208 196 197 196 186 183 167 180 176 196 193
240 249 250 264 252 268 261 260 262 260 259 247 258 261 257 256 247 247 248 251 245 239 222 210 202 200 206 206 195 194 203 200 213 204 204 203 208 199 204 207 190 195 178 180 177 186 189 215 176
261 257 251 252 258 250 253 261 260 254 254 253 250 254 252 248 242 248 245 237 228 223 225 207 213 208 204 207 201 201 213 197 206 213 204 201 209 200 200 209 211 194 183 176 174 186 196 215 161
263 263 260 246 248 246 246 255 247 253 251 248 245 234 246 249 248 240 230 238 227 228 217 208 206 218 208 202 208 210 212 219 201 209 211 198 202 205 206 202 201 198 177 175 183 199 190 196 160
264 261 255 248 245 241 229 259 251 244 237 233 237 234 238 235 233 236 231 236 244 249 250 254 235 209 213 213 200 213 216 214 212 204 202 212 200 203 206 203 203 197 181 169 188 199 204 184 168
249 255 257 260 240 246 228 251 252 246 207 232 222 211 218 223 228 240 243 238 249 253 260 260 253 237 213 217 216 196 207 212 216 213 199 207 207 203 197 198 199 185 177 162 167 190 217 184 174
248 248 253 256 261 258 237 258 244 245 235 230 246 233 234 241 242 230 233 258 307 285 278 270 262 253 233 217 217 217 201 203 209 214 212 199 208 200 206 196 199 193 175 171 167 184 214 195 176
268 269 269 268 266 270 266 258 256 251 225 224 240 242 253 236 225 218 221 222 248 263 265 261 254 243 235 220 215 214 206 191 191 204 221 181 194 204 196 194 181 185 183 179 178 185 199 211 178
254 255 260 268 275 272 267 271 268 271 254 229 243 247 239 233 201 202 237 271 273 280 274 270 253 246 234 221 216 214 207 189 182 201 216 210 204 190 202 202 187 185 177 173 176 183 195 212 191
254 256 259 265 274 275 271 262 261 260 256 249 236 242 236 191 208 177 224 255 288 333 322 295 260 241 226 225 199 152 174 165 193 207 211 213 209 206 195 199 194 191 190 182 184 183 188 202 191
258 257 262 266 266 255 250 264 259 254 230 233 224 210 184 180 186 205 265 308 323 5 340 326 290 257 218 227 188 189 189 194 197 196 207 207 207 205 210 202 197 192 194 189 188 181 188 206 189
257 278 279 270 253 266 252 256 256 212 210 198 193 177 174 153 179 259 323 349 341 3 341 336 314 271 232 232 221 187 196 205 197 202 194 206 211 211 206 198 196 191 201 202 194 186 189 199 191
258 267 258 252 264 253 246 247 250 232 214 190 181 170 160 161 155 290 17 324 349 3 343 332 322 299 249 227 219 198 210 221 194 191 190 198 203 205 209 206 202 207 207 198 192 181 186 187 201
240 234 251 247 230 237 238 235 244 265 222 185 168 165 173 149 154 313 3 348 351 353 345 332 310 273 240 224 225 229 219 230 197 191 198 190 183 200 203 200 194 199 197 185 184 182 184 194 192
231 225 219 223 234 248 230 234 251 231 96 90 130 158 163 177 132 325 350 342 342 349 357 339 327 277 251 236 231 243 237 219 213 200 204 194 192 190 181 179 181 177 174 179 190 185 185 191 189
256 233 237 253 274 276 254 220 108 138 147 162 164 172 154 185 234 352 336 348 336 342 346 348 328 324 255 233 237 232 243 241 211 211 197 225 177 183 180 180 178 174 171 176 186 182 177 183 182
304 288 231 228 220 237 243 220 209 176 169 165 155 155 185 236 314 319 309 320 323 339 340 346 337 311 300 241 228 220 222 235 226 210 202 204 195 175 180 180 178 174 176 177 178 181 184 182 189
265 269 222 238 245 255 239 239 227 188 170 164 143 156 56 348 328 310 305 307 316 339 341 340 339 332 292 283 242 216 218 226 227 206 199 198 187 194 179 179 178 175 177 182 183 186 186 193 193
255 286 340 257 226 237 253 249 326 158 163 168 149 145 5 321 316 303 285 286 320 338 340 341 348 331 322 277 255 228 225 224 206 202 215 198 200 189 176 185 187 180 178 180 187 184 192 188 192